Location: Campagrina
(44.0667°N, 10.2500°E)
Time: 00:41:48
(UTC+00:00)

Daily predictions for brighter satellites

Satellite Brightness Start Highest point End
(mag) Time Altitude Azimuth Time Altitude Azimuth Time Altitude Azimuth
SL-16 R/B 4.1 00:01:19 10° ESE 00:06:34 30° ENE 00:11:52 10° N
Lacrosse 5 2.7 00:07:00 36° ESE 00:07:00 36° ESE 00:11:28 10° ENE
USA 306 2.9 00:07:12 75° NNW 00:07:12 75° NNW 00:11:23 10° NE
Cosmos 1980 3.6 00:06:08 58° SSW 00:07:18 88° ESE 00:12:59 10° NNE
Cosmos 371 Rocket 3.2 00:06:52 66° WSW 00:07:25 75° WNW 00:12:18 10° NNE
Cosmos 2333 Rocket 4.1 00:07:16 13° W 00:10:56 23° NW 00:15:21 10° N
USA 307 2.8 00:11:14 79° NNW 00:11:14 79° NNW 00:15:24 10° NE
Meteor 2-10 Rocket 3.8 00:09:29 10° N 00:15:09 71° ENE 00:16:52 44° SSE
ATLAS CENTAUR R/B 4.0 00:13:09 10° WNW 00:13:49 12° W 00:13:49 12° W
Cosmos 304 Rocket 3.6 00:15:45 70° S 00:16:18 83° ESE 00:21:09 10° NNE
ASTEX 1 4.4 00:12:51 10° NNW 00:17:15 34° WNW 00:18:02 32° W
Cosmos 1709 Rocket 3.8 00:11:26 10° N 00:17:36 90° WSW 00:19:32 47° S
USA 267 3.3 00:17:02 43° S 00:18:43 54° SW 00:25:07 10° WNW
Cosmos 2084 Rocket 3.9 00:19:40 44° E 00:19:40 44° E 00:22:43 10° NE
Cosmos 2315 Rocket 4.0 00:18:32 46° S 00:20:37 86° E 00:27:02 10° N
NOSS 2-2 (C) 4.4 00:19:09 10° NW 00:24:26 63° SW 00:26:47 41° S
S3M 4.4 00:24:09 38° SW 00:26:10 52° WNW 00:32:22 10° N
Meteor 1-24 Rocket 4.3 00:25:26 34° SE 00:27:23 48° E 00:32:37 10° NNE
USA 229 DEB 4.0 00:20:12 10° NW 00:27:30 60° WSW 00:30:40 36° S
COSMOS 2455 4.2 00:25:36 22° SE 00:27:34 26° ESE 00:32:25 10° NE
USA 229 4.0 00:20:18 10° NW 00:27:36 60° WSW 00:30:48 36° S
Cosmos 2219 Rocket 4.1 00:26:28 12° W 00:30:02 21° NW 00:34:12 10° N
Cosmos 1455 4.1 00:29:21 10° NNE 00:32:25 24° ENE 00:33:50 19° ESE
MOZ.5/SAFIR/RUBIN 5/SL-8 3.7 00:34:54 56° S 00:35:54 88° WSW 00:40:40 10° NNW
CZ-2D R/B 2.7 00:33:47 10° NNE 00:38:59 49° E 00:40:53 34° SSE
Cosmos 1455 Rocket 3.0 00:37:13 10° N 00:41:42 90° WSW 00:42:28 61° S
USA 308 3.5 00:40:45 37° W 00:41:59 50° NNW 00:46:04 10° NE
Cosmos 1300 3.5 00:40:52 10° NNW 00:43:56 38° WNW 00:43:56 38° WNW
Meteor 2-5 Rocket 3.7 00:50:14 42° S 00:52:19 89° ESE 00:58:02 10° N
ERBS 3.5 00:55:13 30° NW 00:55:25 30° NW 00:58:11 10° NNE
Cosmos 1975 Rocket 3.2 00:56:40 50° WSW 00:57:25 58° W 01:01:50 10° N
CZ-4C R/B 3.9 00:51:44 10° WNW 00:58:05 29° WSW 00:59:24 27° SW
Cosmos 2237 Rocket 3.0 00:56:44 27° WSW 00:59:11 41° WNW 01:04:35 10° NNE
Cosmos 1025 Rocket 3.0 01:00:08 54° SW 01:00:53 66° W 01:05:11 10° N
SME Rocket 3.2 01:03:28 50° SW 01:04:05 56° W 01:08:57 10° NNW
Resurs 1-4 Rocket 2.0 00:59:36 10° NNE 01:04:54 85° ESE 01:07:01 38° S
USA 305 4.3 01:02:25 18° W 01:04:56 34° NNW 01:08:47 10° NE
CZ-4 R/B 3.7 01:06:59 10° NNE 01:11:39 83° WNW 01:13:13 42° SSW
YAOGAN 11 4.4 01:09:44 24° SSE 01:12:18 65° ENE 01:16:47 10° N
Lacrosse 5 rocket 1.1 01:14:37 58° SSW 01:15:19 80° SE 01:19:23 10° NE
Cosmos 1943 Rocket 2.1 01:09:41 10° NNW 01:15:24 80° WSW 01:19:23 20° SSE
IDEFIX/ARIANE 42P 3.2 01:12:47 10° NNE 01:17:54 49° E 01:21:05 22° SSE
UNK 3.7 01:15:34 27° SSE 01:18:04 81° ENE 01:22:42 10° NNW
GP-B 4.3 01:14:59 10° NNW 01:18:42 27° WNW 01:19:29 25° W
ADEOS II 2.4 01:13:34 10° NNE 01:18:47 60° E 01:21:40 26° S
Cosmos 614 Rocket 4.2 01:15:13 10° NNW 01:20:26 70° ENE 01:25:35 10° SSE
Cosmos 2297 3.7 01:15:25 10° NNW 01:21:13 89° ENE 01:26:43 11° SSE
Thor Agena Rocket 4.4 01:17:14 10° N 01:22:06 38° WNW 01:24:18 26° WSW
Cosmos 1703 4.0 01:24:41 26° SSE 01:26:32 47° E 01:30:19 10° NNE
Cosmos 1544 Rocket 3.7 01:23:51 10° NNW 01:28:10 55° W 01:29:31 38° SSW
Helios 1A 3.5 01:25:17 16° SSE 01:28:33 59° ENE 01:32:43 10° N
Cosmos 2278 Rocket 3.8 01:27:09 10° WNW 01:30:35 17° W 01:30:39 17° W
Cosmos 2251 Rocket 4.3 01:26:13 10° NNW 01:31:23 53° ENE 01:36:33 10° SE
Cosmos 2154 Rocket 4.0 01:26:10 10° N 01:32:33 89° E 01:37:42 16° S
EO 1 Del DPAF 3.3 01:31:29 10° NNE 01:34:58 60° E 01:36:19 33° SSE
MOS 1 Rocket 2.9 01:33:16 28° S 01:35:26 77° WSW 01:39:46 10° NNW
NPP 3.8 01:33:24 10° N 01:38:44 61° WNW 01:41:35 27° SW
Cosmos 2369 Rocket 2.5 01:38:55 10° NNW 01:44:31 70° ENE 01:50:05 10° SSE
SL-16 R/B 2.7 01:44:11 24° WSW 01:47:22 48° WNW 01:52:52 10° NNE
Cosmos 1656 Rocket 4.2 01:42:32 10° NNW 01:47:54 59° ENE 01:53:14 10° SE
Meteor 1-28 Rocket 3.1 01:46:34 27° S 01:48:29 72° WSW 01:52:13 10° NNW
Lacrosse 5 2.6 01:46:10 18° WSW 01:49:41 48° NW 01:54:39 10° NE
SL-16 R/B 2.8 01:45:54 21° SSW 01:49:52 50° W 01:55:56 10° NNW
Cosmos 2074 Rocket 4.5 01:49:23 10° NNW 01:55:18 44° W 01:59:10 21° SSW
AQUA 4.4 01:57:42 10° N 02:02:13 44° WNW 02:04:57 21° SW
Cosmos 1455 3.5 02:04:54 10° NW 02:07:47 22° W 02:08:35 20° WSW
Cosmos 1603 3.9 02:06:20 15° S 02:10:55 67° ESE 02:16:33 10° NNE
DNEPR-1 R/B 3.9 02:08:47 19° SSW 02:11:38 59° ESE 02:16:09 10° NE
COSMOS 2455 3.2 02:08:45 19° SW 02:13:05 57° NW 02:19:03 10° NNE
Cosmos 2228 3.2 02:11:04 10° NNW 02:15:20 54° W 02:18:53 14° SSW
Cosmos 407 Rocket 3.8 02:10:03 10° NNW 02:15:23 73° ENE 02:20:38 10° SSE
Cosmos 1271 Rocket 3.5 02:12:32 10° NNW 02:16:01 33° W 02:18:00 20° SW
Cosmos 2218 Rocket 4.4 02:11:20 10° N 02:17:33 66° E 02:23:49 10° SSE
CZ-2D R/B 3.5 02:14:27 10° N 02:18:42 25° WNW 02:22:12 13° WSW
Cosmos 1140 Rocket 3.5 02:18:18 10° NNW 02:23:36 89° ENE 02:28:50 10° SSE
MSX 4.0 02:20:28 10° N 02:26:08 60° WNW 02:31:10 13° SSW
Cosmos 2058 Rocket 3.6 02:25:57 10° N 02:30:19 62° E 02:34:37 10° SSE
Cosmos 2181 Rocket 4.0 02:26:48 10° S 02:33:02 88° E 02:39:15 10° N
NOSS 3-3 (A) 3.9 02:30:11 14° SW 02:35:02 76° NW 02:41:32 10° NE
NOSS 3-3 (C) 3.9 02:30:17 14° SW 02:35:08 77° NW 02:41:38 10° NE
Cosmos 864 Rocket 4.5 02:34:28 10° N 02:40:41 87° W 02:46:48 10° S
Cosmos 1943 3.4 02:36:10 13° SW 02:41:19 66° WNW 02:47:00 10° NNE
Genesis I 3.2 02:37:36 10° NW 02:41:41 79° SW 02:45:38 10° SSE
Resurs 1-4 Rocket 4.1 02:41:09 10° NNW 02:44:00 15° WNW 02:46:51 10° W
Meteor 1-11 4.4 02:39:09 10° S 02:44:57 84° E 02:50:46 10° NNE
Meteor 2-1 Rocket 4.5 02:39:39 10° NNW 02:45:11 51° W 02:50:36 10° SSW
DEBRIS 3.7 02:36:48 10° WNW 02:46:02 70° NNE 02:49:03 10° ESE
Helios 1B rocket 2.4 02:43:43 10° N 02:47:47 74° WNW 02:51:50 10° SSW
Cosmos 1328 4.4 02:44:33 11° SSW 02:48:04 41° WNW 02:51:53 10° N
OAO 2 Rocket 4.5 02:46:08 11° SW 02:49:54 26° S 02:53:58 10° ESE
Cosmos 1606 Rocket 4.3 02:47:11 10° NNW 02:51:10 34° W 02:55:06 10° SSW
Cosmos 1624 Rocket 4.1 02:46:55 10° SSW 02:52:15 89° ESE 02:57:35 10° NNE
GPS 2-04 Rocket1 4.2 02:50:27 11° SSW 02:52:43 18° S 02:55:10 10° SE
ARIANE 5 R/B 3.1 02:48:02 10° NNE 02:53:02 58° E 02:57:57 10° S
Lacrosse 5 rocket 3.2 02:51:38 10° WNW 02:54:50 23° NNW 02:58:10 10° NNE
CBERS-1 4.2 02:51:19 10° N 02:56:20 58° WNW 03:01:21 10° SSW
IDEFIX/ARIANE 42P 4.0 02:53:00 10° N 02:57:09 24° WNW 03:01:18 10° WSW
ADEOS II 3.7 02:54:15 10° NNW 02:58:00 20° WNW 03:01:44 10° WSW
Cosmos 1943 Rocket 4.0 02:56:41 10° W 02:58:09 11° W 02:59:37 10° WSW
BREEZE-M DEB (TANK) 4.0 02:55:01 10° SW 02:58:09 55° SE 03:07:44 10° ENE
FENGYUN 3A 3.7 02:54:21 10° NNE 02:59:45 84° WNW 03:05:09 10° SSW
Gblst 52 Del rocket 4.4 02:54:37 10° WNW 03:00:14 73° NNE 03:05:44 10° ESE
Cosmos 1825 2.7 03:00:27 10° S 03:04:05 59° E 03:07:45 10° NNE
Cosmos 2056 Rocket 3.6 02:58:56 10° SSW 03:04:06 73° WNW 03:09:25 10° NNE
BREEZE-M DEB (TANK) 4.1 03:06:03 10° WNW 03:11:59 42° N 03:14:35 10° ENE
Cosmos 2366 rocket 4.3 03:06:26 10° NNW 03:12:20 48° W 03:18:14 10° SSW
